Location: Jabiru
(12.6667°S, 132.8333°E)
Time: 03:15:41
(UTC+09:30)

Envisat - Pass Details

Date: 30 October 2019
Orbit: 764 x 766 km, 98.1° (Epoch: 14 November)

Event Time Altitude Azimuth Distance (km) Brightness Sun altitude
Rises 18:50:53 0° 158° (SSE) 3,243 6.2 -3.8°
Reaches altitude 10° 18:53:17 10° 152° (SSE) 2,312 5.4 -4.3°
Maximum altitude 18:58:09 45° 79° (E) 1,039 3.3 -5.5°
Drops below altitude 10° 19:02:58 10° 7° (N) 2,293 5.2 -6.6°
Sets 19:05:20 0° 1° (N) 3,213 6.1 -7.2°
